Regional Weather Roundup
Issued by NWS

Home | Current Version | Previous Version | Text Only | Print | Product List | Glossary On
Versions: 1 2 3 4 5 6 7 8 9 10 11 12 13 14 15 16 17 18 19 20 21 22 23 24 25 26 27 28 29 30 31 32 33 34 35 36 37 38 39 40 41 42 43 44 45 46 47 48 49 50
966
ASUS43 KMKX 251511
RWRWI

WISCONSIN REGIONAL WEATHER ROUNDUP
NATIONAL WEATHER SERVICE MILWAUKEE/SULLIVAN WI
900 AM CST SAT FEB 25 2017

NOTE: "FAIR" INDICATES FEW OR NO CLOUDS BELOW 12,000 FEET WITH NO
SIGNIFICANT WEATHER AND/OR OBSTRUCTIONS TO VISIBILITY.

WIZ001-002-006>008-014>016-023>028-251600-
NORTHWEST WISCONSIN

CITY           SKY/WX    TMP DP  RH WIND       PRES   REMARKS
SUPERIOR ARPT  MOSUNNY   14   4  65 W8        29.90S WCI   3
ASHLAND        CLOUDY    16   8  71 W16       29.81S WCI   1
HAYWARD        CLOUDY    11   2  67 NW14G23   29.82R WCI  -5
SIREN          SUNNY     15   3  60 NW13      29.90R WCI   0
CUMBERLAND     MOSUNNY   14   3  62 NW15      29.85R WCI  -1
RICE LAKE      MOSUNNY   14   4  64 NW12G17   29.87R WCI   0
CHETEK         CLOUDY    13   4  66 NW6       29.86R WCI   4
LADYSMITH      CLOUDY    12   5  73 NW17G24   29.82R HAZE    WCI  -5
EAU CLAIRE     SUNNY     13   4  67 NW15      29.86R WCI  -3
MENOMONIE      SUNNY     15   4  60 W10G18    29.89R WCI   2
NEW RICHMOND   SUNNY     17   3  55 NW17G24   29.91R WCI   1
OSCEOLA        SUNNY     17   4  56 NW12G17   29.95R WCI   4
$$

WIZ003>005-009-010-017-018-251600-
NORTH CENTRAL WISCONSIN

CITY           SKY/WX    TMP DP  RH WIND       PRES   REMARKS
MANITOWISH WTR LGT SNOW  12   9  89 NW12G20   29.67R WCI  -2
ARBOR VITAE    LGT SNOW  14   9  81 NW14G20     N/A  WCI  -1
WOODRUFF       LGT SNOW  14   9  81 NW14G20     N/A  WCI  -1
RHINELANDER    LGT SNOW  14   8  77 NW13      29.65S WCI   0
EAGLE RIVER    LGT SNOW  16   9  75 NW18G30   29.63R WCI  -1
LAND O LAKES   LGT SNOW  16  11  82 NW13G22   29.64R WCI   2
PHILLIPS       FLURRIES  11   6  79 NW12G17   29.73R WCI  -3
TOMAHAWK       LGT SNOW  12   7  79 NW10G20   29.70R WCI  -1
MEDFORD        CLOUDY    12   5  74 NW13      29.72S WCI  -3
MERRILL        NOT AVBL
$$

WIZ029-030-035-036-043>047-251600-
CENTRAL WISCONSIN

CITY           SKY/WX    TMP DP  RH WIND       PRES   REMARKS
WAUSAU         CLOUDY    14   7  73 NW14G25   29.71R WCI  -1
MOSINEE        LGT SNOW  12   9  85 NW14G21   29.73R WCI  -3
MARSHFIELD     FLURRIES  13   6  74 NW16      29.75R WCI  -3
STEVENS POINT  CLOUDY    13   6  72 W12G18    29.75R HAZE    WCI   0
WAUPACA        LGT SNOW  19  10  69 W12       29.75R WCI   7
WAUTOMA        FLURRIES  15   9  76 NW17      29.78R WCI  -1
WISC RAPIDS    MIX PCPN  14   6  70 NW17G29   29.79R WCI  -3
CAMP DOUGLAS   PTSUNNY   14   5  67 NW16      29.82R WCI  -2
$$

WIZ011>013-019>022-031-037>040-048>050-251600-
NORTHEAST WISCONSIN

CITY           SKY/WX    TMP DP  RH WIND       PRES   REMARKS
ANTIGO         LGT SNOW  13   8  81 NW16G25   29.65R WCI  -3
SHAWANO        CLOUDY    20  12  71 CALM      29.69S
OCONTO         CLOUDY    19  14  80 W12G18    29.67R WCI   7
STURGEON BAY   MIX PCPN  21  16  81 W14G21    29.64S WCI   8
GREEN BAY      LGT SNOW  20  15  81 W16G25    29.70R WCI   6
MANITOWOC      LGT SNOW  21  16  81 NW16      29.69R WCI   7
APPLETON       PTSUNNY   18   9  68 W17       29.70R WCI   2
CLINTONVILLE   CLOUDY    19  10  68 NW13      29.71R WCI   7
OSHKOSH        MIX PCPN  17  10  74 W21G26    29.73R WCI   0
$$

WIZ032>034-041-042-053>061-251600-
SOUTHWEST WISCONSIN

CITY           SKY/WX    TMP DP  RH WIND       PRES   REMARKS
LA CROSSE      MOSUNNY   19   8  62 NW20      29.88R WCI   3
SPARTA         PTSUNNY   16   8  72 NW15G24   29.86R WCI   1
VIROQUA        SUNNY     15   8  71 NW12      29.83R WCI   2
BOSCOBEL       MOSUNNY   19   7  59 NW12      29.89R WCI   7
PRAIRIE DU CHI SUNNY     18   8  63 W22G31    29.91R WCI   1
PLATTEVILLE    CLOUDY    17  12  80 W5        29.86R WCI  10
$$

WIZ056-057-062-063-064-067-068-251600-
SOUTH CENTRAL WISCONSIN

CITY           SKY/WX    TMP DP  RH WIND       PRES   REMARKS
REEDSBURG      CLOUDY    15   8  73 NW14G24   29.82R WCI   0
BARABOO/DELLS  FLURRIES  15   9  76 NW9       29.80R WCI   3
LONE ROCK      MOSUNNY   18   7  62 NW18G28   29.86R WCI   2
MINERAL POINT  FLURRIES  19  14  79 W6        29.82R WCI  11
MADISON        FLURRIES  16   8  71 NW13G22   29.80R WCI   2
MIDDLETON      CLOUDY    18  11  75 NW12      29.81R WCI   5
WATERTOWN      PTSUNNY   18  11  74 NW16G23   29.77R WCI   3
MONROE         MOSUNNY   19  12  73 NW18G24   29.81R WCI   4
JANESVILLE     PTSUNNY   21  16  79 NW20      29.79R WCI   6
$$

WIZ051-052-058>065-066-070>072-251600-
SOUTHEAST WISCONSIN

CITY           SKY/WX    TMP DP  RH WIND       PRES   REMARKS
MILWAUKEE      PTSUNNY   22  12  65 NW21G28   29.75R WCI   6
WAUKESHA       LGT SNOW  18  12  79 W17G24    29.75R WCI   2
MILWAUKEE/TIMM PTSUNNY   19  12  73 NW21      29.75R WCI   3
RACINE         CLOUDY    22  13  68 W14G23    29.76R WCI   9
KENOSHA        CLOUDY    21  13  71 NW21G28   29.76R WCI   5
FOND DU LAC    MIX PCPN  18   9  68 NW21G30   29.74R WCI   1
SHEBOYGAN      LGT SNOW  19  12  74 NW21G28   29.70R WCI   3
WEST BEND      PTSUNNY   19  16  86 W7        29.72R WCI  10
JUNEAU         CLOUDY    16  10  78 W5        29.76R HAZE    WCI   9
$$

LSZ147-162-251600-
LAKE SUPERIOR

STATION/POSITION TIME  TEMP    WIND        PRES    WAVE
                       AIR SEA DIR/SP/G            HT/PER
                 (UTC) (F)     (DEG/KT/KT) (MB)    (FT/S)
DEVILS ISLAND    1500   16     300/ 13/ 16 1010.2F
PORT WING        1430   15     320/ 18/ 24 1010.8S
SAXON HARBOR     1440   19     310/ 17/ 21 1008.8R
$$

LMZ867-665-643>646-251600-
LAKE MICHIGAN

STATION/POSITION TIME  TEMP    WIND        PRES    WAVE
                       AIR SEA DIR/SP/G            HT/PER
                 (UTC) (F)     (DEG/KT/KT) (MB)    (FT/S)
CHAMBERS ISLAND  1430   20      CALM  /  2 1003.0R
NORTHPORT PIER   1440   20     310/  2/  3 1002.4R
SISTER BAY       1435   20        CALM       N/A
KEWAUNEE LAKESHO 1448   19     310/ 13/ 22 1004.0R
SHEBOYGAN LAKESH 1500   20     290/  7/ 10 1006.8R
PORT WASHINGTON  1440   21     300/ 12/ 20 1007.5R
MILWAUKEE LAKESH 1450   21     300/ 14/ 18   N/A
KENOSHA   LAKESH 1500   21     300/ 19/ 25 1008.1
$$

TC  - TEMPERATURE IN CELSIUS
VSB - VISIBILITY IN STATUTE MILES
WCI - WIND CHILL INDEX
HX  - HEAT INDEX





USA.gov is the U.S. government's official web portal to all federal, state and local government web resources and services.